When you browse on this site, cookies collect data to enhance your experience and personalize the content and advertising you see.
Visit our Privacy Policy to learn more. By continuing to use the site, you agree to this use of cookies and data.
  • En España
  • Lista de países
  • Para 7 días
  • Temperatura del agua
  • El tiempo en el mapa
  • Informadores
  • user-avatar
    Iniciar sesión

    Tiempo cada hora Nottingham

    Hoy, 1 Junio, Lunes

    Tiempo Temperatura Precipitaciones Viento Presión Humedad
    00:00 +9°C° 0 mm 2 mps 763 mmHg 86%
    01:00 +9°C° 0 mm 2 mps 763 mmHg 88%
    02:00 +8°C° 0 mm 3 mps 763 mmHg 89%
    03:00 +8°C° 0 mm 3 mps 763 mmHg 90%
    04:00 +9°C° 0 mm 3 mps 763 mmHg 89%
    05:00 +10°C° 0 mm 3 mps 763 mmHg 87%
    06:00 +11°C° 0 mm 3 mps 763 mmHg 85%
    07:00 +13°C° 0 mm 4 mps 763 mmHg 81%
    08:00 +15°C° 0 mm 4 mps 763 mmHg 76%
    09:00 +18°C° 0 mm 4 mps 763 mmHg 71%
    10:00 +19°C° 0 mm 4 mps 763 mmHg 68%
    11:00 +19°C° 0 mm 4 mps 763 mmHg 65%
    12:00 +20°C° 0 mm 4 mps 763 mmHg 62%
    13:00 +21°C° 0 mm 4 mps 763 mmHg 63%
    14:00 +21°C° 0 mm 4 mps 763 mmHg 65%
    15:00 +21°C° 0 mm 4 mps 763 mmHg 66%
    16:00 +20°C° 0.1 mm 4 mps 762 mmHg 69%
    17:00 +19°C° 0.1 mm 4 mps 762 mmHg 71%
    18:00 +18°C° 0.1 mm 4 mps 762 mmHg 74%
    19:00 +15°C° 0 mm 4 mps 762 mmHg 77%
    20:00 +13°C° 0 mm 3 mps 762 mmHg 81%
    21:00 +11°C° 0 mm 3 mps 763 mmHg 85%
    22:00 +10°C° 0 mm 3 mps 763 mmHg 87%
    23:00 +9°C° 0 mm 2 mps 763 mmHg 89%

    Mañana, 2 Junio, Martes

    Tiempo Temperatura Precipitaciones Viento Presión Humedad
    00:00 +9°C° 0 mm 2 mps 763 mmHg 91%
    01:00 +8°C° 0 mm 2 mps 762 mmHg 91%
    02:00 +8°C° 0 mm 2 mps 762 mmHg 91%
    03:00 +8°C° 0 mm 2 mps 762 mmHg 92%
    04:00 +9°C° 0 mm 2 mps 762 mmHg 90%
    05:00 +10°C° 0 mm 2 mps 762 mmHg 88%
    06:00 +12°C° 0 mm 2 mps 761 mmHg 87%
    07:00 +13°C° 0 mm 2 mps 761 mmHg 81%
    08:00 +15°C° 0 mm 2 mps 761 mmHg 74%
    09:00 +17°C° 0 mm 2 mps 761 mmHg 68%
    10:00 +18°C° 0 mm 2 mps 760 mmHg 64%
    11:00 +19°C° 0 mm 2 mps 760 mmHg 60%
    12:00 +20°C° 0 mm 2 mps 760 mmHg 55%
    13:00 +20°C° 0 mm 2 mps 759 mmHg 54%
    14:00 +22°C° 0 mm 1 mps 759 mmHg 52%
    15:00 +22°C° 0 mm 1 mps 758 mmHg 50%
    16:00 +22°C° 0 mm 1 mps 757 mmHg 54%
    17:00 +22°C° 0 mm 1 mps 757 mmHg 58%
    18:00 +21°C° 0 mm 1 mps 756 mmHg 62%
    19:00 +19°C° 0 mm 1 mps 756 mmHg 69%
    20:00 +16°C° 0 mm 2 mps 756 mmHg 75%
    21:00 +14°C° 0 mm 2 mps 756 mmHg 82%
    22:00 +14°C° 0 mm 1 mps 755 mmHg 82%
    23:00 +13°C° 0 mm 1 mps 755 mmHg 83%

    Pasado mañana, 3 Junio, Miércoles

    Tiempo Temperatura Precipitaciones Viento Presión Humedad
    00:00 +13°C° 0 mm 1 mps 754 mmHg 83%
    01:00 +13°C° 0 mm 1 mps 754 mmHg 83%
    02:00 +13°C° 0 mm 1 mps 753 mmHg 84%
    03:00 +13°C° 0 mm 1 mps 753 mmHg 84%
    04:00 +13°C° 0.4 mm 1 mps 753 mmHg 87%
    05:00 +13°C° 0.4 mm 2 mps 752 mmHg 89%
    06:00 +12°C° 0.4 mm 2 mps 752 mmHg 92%
    07:00 +12°C° 0.7 mm 2 mps 752 mmHg 93%
    08:00 +11°C° 0.7 mm 3 mps 752 mmHg 94%
    09:00 +11°C° 0.7 mm 3 mps 752 mmHg 95%
    10:00 +11°C° 0.4 mm 4 mps 752 mmHg 94%
    11:00 +11°C° 0.4 mm 4 mps 752 mmHg 93%
    12:00 +10°C° 0.4 mm 5 mps 752 mmHg 93%
    13:00 +10°C° 0 mm 5 mps 752 mmHg 90%
    14:00 +12°C° 0 mm 5 mps 752 mmHg 88%
    15:00 +12°C° 0 mm 5 mps 752 mmHg 86%
    16:00 +12°C° 0 mm 5 mps 752 mmHg 84%
    17:00 +12°C° 0 mm 5 mps 752 mmHg 83%
    18:00 +13°C° 0 mm 5 mps 752 mmHg 81%
    19:00 +12°C° 0 mm 5 mps 752 mmHg 83%
    20:00 +10°C° 0 mm 5 mps 752 mmHg 84%
    21:00 +10°C° 0 mm 6 mps 752 mmHg 86%
    22:00 +10°C° 0 mm 5 mps 752 mmHg 86%
    23:00 +9°C° 0 mm 5 mps 751 mmHg 86%

    4 Junio, Jueves

    Tiempo Temperatura Precipitaciones Viento Presión Humedad
    00:00 +9°C° 0 mm 5 mps 751 mmHg 85%
    01:00 +8°C° 0 mm 5 mps 751 mmHg 87%
    02:00 +8°C° 0 mm 4 mps 750 mmHg 88%
    03:00 +7°C° 0 mm 4 mps 750 mmHg 90%
    04:00 +7°C° 0 mm 4 mps 750 mmHg 87%
    05:00 +8°C° 0 mm 4 mps 749 mmHg 85%
    06:00 +8°C° 0 mm 4 mps 749 mmHg 83%
    07:00 +10°C° 0 mm 4 mps 749 mmHg 78%
    08:00 +10°C° 0 mm 4 mps 748 mmHg 74%
    09:00 +11°C° 0 mm 4 mps 748 mmHg 69%
    10:00 +11°C° 0.3 mm 4 mps 748 mmHg 71%
    11:00 +11°C° 0.3 mm 3 mps 747 mmHg 72%
    12:00 +11°C° 0.3 mm 3 mps 747 mmHg 74%
    13:00 +12°C° 0.1 mm 3 mps 747 mmHg 69%
    14:00 +13°C° 0.1 mm 3 mps 746 mmHg 65%
    15:00 +14°C° 0.1 mm 4 mps 746 mmHg 60%
    16:00 +13°C° 0.6 mm 4 mps 746 mmHg 68%
    17:00 +12°C° 0.6 mm 4 mps 746 mmHg 76%
    18:00 +11°C° 0.6 mm 4 mps 746 mmHg 83%
    19:00 +10°C° 0.5 mm 3 mps 746 mmHg 86%
    20:00 +9°C° 0.5 mm 2 mps 746 mmHg 88%
    21:00 +9°C° 0.5 mm 1 mps 746 mmHg 91%
    22:00 +8°C° 0.1 mm 1 mps 746 mmHg 90%
    23:00 +7°C° 0.1 mm 2 mps 746 mmHg 89%

    5 Junio, Viernes

    Tiempo Temperatura Precipitaciones Viento Presión Humedad
    00:00 +6°C° 0.1 mm 2 mps 746 mmHg 88%
    01:00 +6°C° 0 mm 2 mps 746 mmHg 88%
    02:00 +6°C° 0 mm 2 mps 746 mmHg 88%
    03:00 +5°C° 0 mm 2 mps 746 mmHg 88%
    04:00 +6°C° 0 mm 2 mps 746 mmHg 86%
    05:00 +7°C° 0 mm 2 mps 746 mmHg 85%
    06:00 +8°C° 0 mm 2 mps 746 mmHg 83%
    07:00 +10°C° 0 mm 3 mps 746 mmHg 78%
    08:00 +11°C° 0 mm 4 mps 746 mmHg 73%
    09:00 +13°C° 0 mm 5 mps 746 mmHg 68%
    10:00 +13°C° 0.1 mm 5 mps 746 mmHg 68%
    11:00 +13°C° 0.1 mm 6 mps 745 mmHg 68%
    12:00 +13°C° 0.1 mm 6 mps 745 mmHg 69%
    13:00 +11°C° 0.1 mm 6 mps 744 mmHg 72%
    14:00 +10°C° 0.1 mm 5 mps 744 mmHg 76%
    15:00 +9°C° 0.1 mm 5 mps 743 mmHg 79%
    16:00 +10°C° 0.1 mm 5 mps 743 mmHg 81%
    17:00 +10°C° 0.1 mm 5 mps 743 mmHg 82%
    18:00 +12°C° 0.1 mm 5 mps 742 mmHg 84%
    19:00 +10°C° 0.1 mm 5 mps 742 mmHg 85%
    20:00 +10°C° 0.1 mm 5 mps 743 mmHg 86%
    21:00 +9°C° 0.1 mm 5 mps 743 mmHg 87%
    22:00 +8°C° 0 mm 5 mps 743 mmHg 88%
    23:00 +8°C° 0 mm 5 mps 743 mmHg 90%

    6 Junio, Sábado

    Tiempo Temperatura Precipitaciones Viento Presión Humedad
    00:00 +7°C° 0 mm 4 mps 743 mmHg 91%
    01:00 +8°C° 0 mm 3 mps 744 mmHg 90%
    02:00 +8°C° 0 mm 2 mps 744 mmHg 89%
    03:00 +9°C° 0 mm 1 mps 744 mmHg 87%
    04:00 +8°C° 0 mm 2 mps 745 mmHg 86%
    05:00 +9°C° 0 mm 3 mps 745 mmHg 85%
    06:00 +8°C° 0 mm 4 mps 745 mmHg 83%
    07:00 +9°C° 0.1 mm 5 mps 745 mmHg 76%
    08:00 +10°C° 0.1 mm 6 mps 745 mmHg 68%
    09:00 +10°C° 0.1 mm 7 mps 745 mmHg 60%
    10:00 +11°C° 0.1 mm 8 mps 746 mmHg 58%
    11:00 +11°C° 0.1 mm 8 mps 746 mmHg 56%
    12:00 +12°C° 0.1 mm 9 mps 746 mmHg 54%
    13:00 +11°C° 0.1 mm 9 mps 746 mmHg 53%
    14:00 +11°C° 0.1 mm 10 mps 746 mmHg 53%
    15:00 +11°C° 0.1 mm 10 mps 746 mmHg 53%
    16:00 +10°C° 0 mm 9 mps 746 mmHg 56%
    17:00 +10°C° 0 mm 9 mps 746 mmHg 59%
    18:00 +9°C° 0 mm 8 mps 746 mmHg 62%
    19:00 +7°C° 0 mm 8 mps 746 mmHg 64%
    20:00 +6°C° 0 mm 7 mps 747 mmHg 67%
    21:00 +5°C° 0 mm 6 mps 747 mmHg 70%
    22:00 +5°C° 0 mm 7 mps 747 mmHg 71%
    23:00 +5°C° 0 mm 7 mps 747 mmHg 72%
    Mostrar más